FENGYUN 1C DEB, 31648

Orbit data source: Space-Track

FENGYUN 1C DEB, 31648 is space debris in SSO originally from a launch on Mon, 10 May 1999 UTC launched from the Taiyaun Space Center, China (TSC). Fengyun 1C debris stems from the Chinese weather satellite Fengyun-1C, which was intentionally destroyed by a Chinese anti-satellite missile in 2007. This event dramatically increased the amount of space debris, with thousands of trackable fragments posing hazards to satellites and human spaceflight. The Fengyun 1C debris cloud has become a focal point in discussions about space sustainability and the need for international regulations to prevent the creation of new debris.

Loading next visibility...
Identifier
31648, 1999-025CBE
Orbit
SSO
Country
Flag of CNCN / PRC
Related business
Manufacturer
Unknown
Mission
Spacecraft
Bus & Motor
Unknown
Mass
Unknown
Launch date (UTC)
1999-05-10 (27 years ago)
Launch vehicle
Unknown
Launch site
Taiyaun Space Center, China (TSC)
Object type
Payload
Rocket body
Debris
Shape & HBR
Unknown shape, 0.1 m
Radar Cross Section
Small (<0.1 m²)

Expand to show TLE details & history
Last TLE update: 3 months ago

TLE from 3 months ago
0 FENGYUN 1C DEB
1 31648U 99025CBE 25253.64034145  .00001933  00000-0  10474-2 0  9995
2 31648 102.7919  37.0250 0045131  26.6440 333.7023 14.14044610705813
Epoch: 2025-09-10T15:22Z
TLE epoch observation values (Epoch: 2025-09-10T15:22:05.501Z)
Latitude
-0.00004°
Longitude
176.58823°
Altitude
819.108 km
Speed
7.459 km/s
True Right ascension
02h 28m 06s
True Declination
0° 00' 00"
Sunlit
Object was in full shadow at epoch
Visualization orbit readout
Latitude
Unknown
Longitude
Unknown
Altitude
Unknown
Speed
Unknown
Apparent Right ascension
Unknown
Apparent Declination
Unknown
Sunlit
N/A
Visualization observer readout
Local Sidereal Time
19:12:56
Azimuth
Unknown
Elevation
Unknown
Doppler factor
Unknown
Orbital elements
Apogee altitude
875.559 km
Perigee altitude
810.379 km
Semi-major axis
7,221.106 km
Eccentricity
0.00451
Inclination
102.7919°
RAAN
37.025°
Arg. of periapsis
26.644°
True anomaly
333.47201°
Mean anomaly
333.7023°
Eccentric anomaly
333.58727°
Mean motion
3.53702 °/min
Orbital period
101.78 mins
BSTAR
0.0010474
Loading maneuver chart data...
Computing Atmospheric mass density...

Documentation

Showing up to 5 results
|